Terminal Aerodrome Forecast
Issued by NWS Rapid City, SD

Home | Current Version | Previous Version | Text Only | Print | Product List | Glossary Off
Versions: 1 2 3 4 5 6 7 8 9 10 11 12 13 14 15 16 17 18 19

000
FTUS43 KUNR 261100
TAFRAP
TAF
KRAP 261121Z 2612/2712 12008KT P6SM VCTS BKN025 OVC080CB
     FM261400 13011KT P6SM SCT025 BKN080
      TEMPO 2614/2617 BKN025
     FM261700 11008KT P6SM BKN100=

USA.gov is the U.S. government's official web portal to all federal, state and local government web resources and services.